Tracking 19242 objects as of 20-Sep-2018
HD Live streaming from Space Station
objects crossing your sky now

FENGYUN 1C DEB

Track FENGYUN 1C DEB now!
10-day predictions


NORAD ID: 30730
Int'l Code: 1999-025ASQ
Perigee: 781.3 km
Apogee: 912.7 km
Inclination: 98.9 °
Period: 101.7 minutes
Semi major axis: 7217 km
RCS: 0.031 m2 (small)
Launch date: May 10, 1999
Source: People's Republic of China (PRC)
Launch site: Taiyaun Space Center, China (TSC)

Note: This is SATELLITE DEBRIS
aabbcc
Your satellite tracking list
Your tracking list is empty




NASA's NSSDC Master Catalog

Two Line Element Set (TLE):
1 30730U 99025ASQ 18263.05558272  .00000321  00000-0  17855-3 0  9997
2 30730  98.8758 302.5216 0090969  71.2588 345.7555 14.15722036595805
Source of the keplerian elements: AFSPC